Location: Smithers
(54.7670°N, 127.1670°W)
Time: 17:51:30
(UTC-07:00)

Daily predictions for brighter satellites

Satellite Brightness Start Highest point End
(mag) Time Altitude Azimuth Time Altitude Azimuth Time Altitude Azimuth
Cosmos 1898 Rocket 3.6 20:24:37 10° SSW 20:29:57 89° ESE 20:35:15 10° NNE
Cosmos 1766 3.3 20:26:39 10° S 20:30:29 60° E 20:34:20 10° NNE
Envisat 3.6 20:25:53 10° SE 20:30:36 40° ENE 20:35:20 10° N
Resurs 01 Rocket 1.7 20:28:44 10° SSE 20:33:10 89° WSW 20:37:39 10° NNW
Lacrosse 5 rocket 1.5 20:29:48 10° WNW 20:33:52 66° SSW 20:37:40 10° SE
Cosmos 1048 Rocket 4.0 20:29:39 10° NNW 20:34:49 80° ENE 20:39:57 10° SSE
Cosmos 1821 Rocket 4.1 20:29:10 10° S 20:35:33 89° ESE 20:41:55 10° NNE
Cosmos 1674 3.1 20:32:28 10° N 20:36:05 42° ENE 20:39:43 10° SE
H-2A R/B 4.0 20:34:46 10° ENE 20:37:30 14° NE 20:40:12 10° NNE
Cosmos 1125 Rocket 4.3 20:34:12 10° SSE 20:38:40 30° ESE 20:43:10 10° NE
Cosmos-2242 4.2 20:36:40 10° SE 20:40:00 23° E 20:43:21 10° NE
HJ-1C 4.4 20:36:40 10° S 20:40:00 52° W 20:43:24 10° NNW
USA 267 3.4 20:36:07 10° E 20:42:40 79° N 20:49:13 10° WNW
Cosmos 1844 3.8 20:38:36 10° SSW 20:44:23 82° ESE 20:50:15 10° NE
SAR-Lupe-4 3.5 20:42:59 10° SSE 20:46:34 70° ENE 20:50:09 10° NNW
YAOGAN 6 4.0 20:45:19 10° ESE 20:48:18 24° ENE 20:51:21 10° N
ERS-1 Rocket 3.7 20:43:55 10° SE 20:48:27 34° ENE 20:52:59 10° N
Meteor 1-29 4.2 20:47:25 10° NE 20:50:14 23° E 20:53:02 10° SSE
Intercosmos 24 Rocket 4.4 20:45:33 10° S 20:50:15 65° E 20:53:57 10° NNE
SeaSat 1 4.0 20:47:23 10° S 20:51:56 36° WSW 20:56:30 10° NW
Cosmos 2297 Rocket 4.5 20:49:28 10° NW 20:52:47 15° N 20:56:06 10° NE
Cosmos 1605 Rocket 4.0 20:47:21 10° S 20:53:38 74° E 21:00:02 10° NNE
Cosmos 1743 Rocket 4.2 20:49:39 10° N 20:53:48 38° ENE 20:57:58 10° SE
Cosmos 1500 Rocket 4.4 20:51:36 10° N 20:55:28 30° ENE 20:58:55 12° SE
COSMOS 2487 2.7 20:52:42 10° NNW 20:56:17 72° WSW 20:59:51 10° SSE
Cosmos 1356 Rocket 4.3 20:53:32 10° N 20:57:16 30° ENE 21:00:22 13° SE
CZ-2D R/B 3.6 20:53:37 10° S 20:57:29 69° WSW 21:01:24 10° NNW
Cosmos 1937 Rocket 3.8 20:52:37 10° SSW 20:57:54 77° WNW 21:03:16 10° NNE
Cosmos 1805 3.2 20:58:23 10° S 21:02:15 70° E 21:06:11 10° NNE
H-2A R/B 4.1 21:01:04 10° ENE 21:02:36 12° NE 21:04:09 10° NNE
Meteor 1-21 Rocket 4.4 20:59:20 10° NNW 21:05:10 83° WSW 21:11:04 10° S
SAR-Lupe-1 4.1 21:01:50 10° SSE 21:05:26 86° WSW 21:09:03 10° NNW
Cosmos 1626 4.0 21:05:29 10° NNE 21:07:46 15° ENE 21:08:57 14° E
Cosmos 2251 Rocket 3.7 21:04:55 10° NNW 21:10:10 58° ENE 21:14:41 14° SE
Meteor 1-4 Rocket 2.4 21:08:05 10° S 21:11:32 65° E 21:15:01 10° NNE
ALOS 4.2 21:09:17 10° SSW 21:13:27 31° W 21:17:38 10° NNW
Cosmos 1408 Rocket 3.7 21:10:41 10° NNW 21:15:11 81° W 21:19:40 10° S
Cosmos 1802 Rocket 4.3 21:11:30 10° SSE 21:17:14 43° E 21:23:01 10° NNE
Cosmos 1844 Rocket 3.5 21:12:10 10° SW 21:17:41 54° NW 21:23:14 10° NNE
Cosmos 1470 3.1 21:14:39 10° SSE 21:18:27 44° E 21:22:14 10° NNE
Cosmos 1340 Rocket 2.7 21:15:12 10° NNW 21:19:17 83° ENE 21:23:18 10° SSE
Cosmos 2227 Rocket 4.4 21:16:02 10° NNW 21:19:30 16° N 21:22:58 10° NE
Cosmos 1544 3.3 21:16:38 10° SSW 21:20:17 76° W 21:24:01 10° N
CZ-4B DEB 2.9 21:17:44 10° S 21:20:49 71° WSW 21:23:57 10° NNW
Cosmos 1833 Rocket 3.4 21:16:47 10° NW 21:22:15 54° WSW 21:27:43 10° S
Coronas F rocket 3.2 21:23:18 10° NNE 21:23:53 13° NE 21:23:53 13° NE
Cosmos 1733 3.4 21:22:59 10° S 21:26:44 50° E 21:30:32 10° NNE
Cosmos 2058 3.6 21:24:24 10° N 21:28:18 36° ENE 21:30:09 24° ESE
Cosmos 389 Rocket 4.2 21:30:18 18° ENE 21:30:18 18° ENE 21:32:04 10° NE
MetOp-B 4.5 21:26:18 18° SE 21:30:05 49° ENE 21:35:14 10° N
Timation 1 Rocket 4.3 21:24:48 10° SSW 21:30:45 66° ESE 21:36:44 10° NE
Cosmos 2061 Rocket 4.1 21:24:44 10° S 21:30:58 57° E 21:37:17 10° NNE
Cosmos 2151 3.2 21:30:03 10° N 21:34:13 49° ENE 21:36:30 24° SE
NOAA 11 4.5 21:30:51 19° SE 21:34:39 52° ENE 21:40:00 10° N
Cosmos 1842 Rocket 4.1 21:32:31 19° SE 21:35:03 36° E 21:39:05 10° NNE
Cosmos 2278 Rocket 2.4 21:29:28 10° SW 21:35:10 77° NW 21:40:54 10° NNE
Cosmos 372 Rocket 3.9 21:30:26 10° S 21:35:28 59° ESE 21:40:34 10° NNE
Helios 1B rocket 2.4 21:37:36 10° NNE 21:41:47 89° SE 21:45:55 10° SSW
SS 1 4.4 21:41:27 10° NW 21:44:21 83° SW 21:45:07 45° SE
ATLAS 5 CENTAUR R/B 2.3 21:41:08 10° S 21:45:31 36° ESE 21:50:19 10° ENE
USA 186 4.1 21:44:52 10° SW 21:46:11 14° W 21:47:30 10° WNW
SL-14 R/B 3.1 21:43:02 10° N 21:46:55 79° E 21:49:03 26° SSE
Cosmos 1459 Rocket 3.9 21:40:48 10° S 21:47:00 76° E 21:53:10 10° NNE
Cosmos 1758 4.3 21:44:09 10° SSW 21:48:01 49° WNW 21:51:58 10° N
USA 215 3.9 21:43:05 10° ENE 21:48:46 31° SE 21:54:25 10° SSW
Cosmos 1328 3.7 21:45:56 10° NNW 21:49:56 87° W 21:52:27 22° S
YAOGAN 11 4.2 21:47:53 25° SSE 21:50:29 69° ENE 21:55:02 10° NNW
Cosmos 1867 3.6 21:45:24 10° SSW 21:50:45 59° SE 21:56:09 10° NE
Cosmos 2297 3.6 21:45:28 10° SSW 21:51:11 77° ESE 21:56:58 10° NE
Cosmos 2173 Rocket 3.9 21:46:46 10° S 21:52:57 81° E 21:59:18 10° NNE
Cosmos 494 Rocket 4.1 21:48:50 10° NNW 21:53:58 74° WSW 21:57:26 21° SSE
BREEZE-M DEB (TANK) 3.8 21:52:23 10° WSW 21:54:09 20° SSW 21:54:09 20° SSW
Cosmos 1953 3.5 21:51:59 10° SSW 21:55:53 45° WNW 21:59:50 10° N
Meteor 1-11 4.1 21:51:43 10° NNW 21:57:21 85° ENE 22:01:15 21° SSE
Cosmos 2082 Rocket 3.9 21:53:15 10° NW 21:58:06 30° WSW 22:02:56 10° SSW
Lacrosse 4 Rocket 3.4 21:55:10 10° W 21:58:44 28° NW 22:02:21 10° NNE
SWAS 4.4 21:55:27 10° SSW 21:59:42 62° ESE 22:04:00 10° NE
Cosmos 1184 Rocket 3.5 21:56:34 10° NNW 21:59:55 53° W 22:01:44 23° SSW
Lacrosse 5 1.8 21:55:03 10° WSW 22:00:08 78° SSE 22:03:51 19° ENE
Cosmos 1939 Rocket 4.0 21:57:32 10° S 22:01:30 45° W 22:05:32 10° NNW
Cosmos 1271 Rocket 3.0 21:59:26 10° SSW 22:03:27 74° WNW 22:07:31 10° N
GP-B 4.4 21:59:53 10° SSW 22:04:05 41° W 22:08:20 10° NNW
CZ-3B DEB 1.9 21:56:55 10° WSW 22:04:50 74° SSE 22:06:38 34° E
SPOT 5 3.1 22:03:30 28° SSE 22:06:23 75° ENE 22:11:42 10° NNW
Cosmos 2344 4.0 21:59:30 10° WSW 22:07:23 79° NW 22:17:14 10° NE
Landsat 7 4.5 22:06:46 33° E 22:07:57 39° ENE 22:12:23 10° N
Sich 1 3.8 22:04:35 10° N 22:08:41 35° ENE 22:09:10 34° E
Envisat 4.2 22:04:52 10° SSW 22:09:39 40° W 22:14:28 10° NNW
Cosmos 1666 Rocket 4.2 22:05:38 10° N 22:09:40 36° ENE 22:10:05 35° E
Lacrosse 5 rocket 3.3 22:09:48 10° W 22:12:25 17° SW 22:13:51 14° SSW
Cosmos 1633 Rocket 3.8 22:09:21 10° N 22:13:26 34° ENE 22:13:48 34° E
Meteor 1-16 Rocket 4.2 22:08:07 10° S 22:13:57 72° E 22:19:54 10° NNE
Geosat 4.2 22:10:30 10° NNE 22:15:33 75° NW 22:20:34 10° SW
H-2A R/B 2.3 22:14:06 37° ESE 22:15:56 55° ENE 22:21:05 10° N
MetOp-A 4.2 22:12:46 25° S 22:15:58 81° WSW 22:21:23 10° NNW
Meteor 2-17 Rocket 4.4 22:10:09 10° S 22:16:19 84° E 22:22:29 10° NNE
ARGOS 3.1 22:14:34 33° SSE 22:17:06 81° ENE 22:22:29 10° NNW
Cosmos-2242 3.9 22:13:09 10° SSW 22:17:17 50° WNW 22:21:29 10° N
Cosmos 1703 3.1 22:14:53 10° N 22:18:51 74° ENE 22:19:24 61° SE
SL-19 R/B 4.5 22:18:29 53° ESE 22:19:13 65° ENE 22:23:43 10° NNW
Cosmos 1125 Rocket 4.1 22:15:22 10° SW 22:20:30 57° WNW 22:25:41 10° NNE
YAOGAN 6 3.7 22:19:46 23° SSW 22:21:41 43° W 22:25:17 10° NNW
Terra 2.4 22:22:31 37° E 22:23:14 39° ENE 22:27:40 10° N
Cosmos 2016 Rocket 4.0 22:18:33 10° SSW 22:24:46 85° WNW 22:30:57 10° N
Meteor 2-1 Rocket 4.3 22:23:26 36° SSE 22:25:32 56° E 22:31:03 10° NNE
USA 267 3.3 22:22:50 34° SE 22:25:51 67° SSW 22:32:23 10° WNW
ERS-1 Rocket 3.8 22:23:21 16° S 22:27:07 47° W 22:32:01 10° NNW
Cosmos 1725 Rocket 3.9 22:28:20 19° S 22:33:01 82° E 22:39:15 10° NNE
Cosmos 2221 2.7 22:34:53 55° E 22:34:53 55° E 22:38:57 10° NNE
Cosmos 1805 Rocket 3.4 22:32:35 10° N 22:37:03 85° ENE 22:37:40 65° SSE
H-2A R/B 1.9 22:37:50 63° ENE 22:37:52 63° ENE 22:41:57 10° N
Cosmos 2297 Rocket 4.1 22:34:45 10° NNW 22:39:03 21° NNE 22:42:06 14° ENE
IGS 5A 4.0 22:41:15 44° NE 22:41:15 44° NE 22:44:54 10° N
Tsikada Rocket 4.4 22:37:09 10° NNW 22:43:15 62° W 22:47:13 23° SSW
Cosmos 1626 2.2 22:39:52 10° NNW 22:43:38 70° W 22:43:38 70° W
SL-08 RB Rocket 3.8 22:43:19 51° S 22:44:25 75° WSW 22:49:08 10° NNW
Fregat R/B Cluster 11 4.2 22:42:20 10° WSW 22:46:00 63° NW 22:49:51 10° NE
Cosmos 1470 Rocket 4.4 22:44:17 10° N 22:48:04 38° NE 22:48:04 38° NE
Cosmos 1833 4.1 22:44:48 10° NNW 22:50:28 80° NE 22:51:37 58° SE
Cosmos 2369 Rocket 2.6 22:58:19 43° ENE 22:58:19 43° ENE 23:02:36 10° NE
SPOT 1/Viking Rocket 3.9 22:58:20 44° SSW 22:59:49 62° WSW 23:05:02 10° NNW
Cosmos 389 Rocket 3.6 23:04:16 42° WNW 23:04:16 42° WNW 23:07:32 10° N
Cosmos 2227 Rocket 3.6 23:00:35 10° NNW 23:05:31 29° NE 23:07:16 25° ENE
Nimbus 7 Rocket 4.2 23:00:35 10° NNE 23:06:30 83° ESE 23:08:13 49° S
Meteor 2-12 Rocket 4.4 23:09:06 59° ESE 23:09:27 60° E 23:15:24 10° NNE
Cosmos 407 Rocket 3.5 23:05:38 10° NNW 23:10:57 65° ENE 23:11:11 64° ENE
Cosmos 2278 Rocket 4.3 23:15:28 10° W 23:20:10 26° NNW 23:24:55 10° NNE
Cosmos 1092 Rocket 4.4 23:16:57 10° N 23:22:53 45° ENE 23:23:14 44° E
Cosmos 1943 Rocket 3.3 23:30:51 30° ENE 23:30:51 30° ENE 23:33:57 10° NE
ATLAS 5 CENTAUR R/B 2.3 23:25:03 10° WSW 23:29:58 64° NNW 23:35:28 10° NE
USA 215 3.1 23:25:59 10° ENE 23:32:33 72° SSE 23:39:03 10° WSW
Cosmos 1072 Rocket 4.4 23:33:29 71° SE 23:34:03 77° E 23:40:30 10° NNE
DMSP B5D2-2 4.1 23:30:46 10° NNE 23:35:23 68° NE 23:35:23 68° NE
Lacrosse 4 Rocket 4.4 23:36:30 10° NW 23:38:44 14° N 23:40:59 10° NNE
Cosmos 2233 Rocket 4.4 23:36:57 34° SW 23:39:30 58° WNW 23:45:36 10° N
Nadezhda 4 Rocket 3.8 23:36:33 10° N 23:42:42 75° ENE 23:42:52 74° E
Lacrosse 5 2.1 23:38:13 10° W 23:43:05 67° NNW 23:43:05 67° NNW
Cosmos 2219 3.1 23:38:39 10° NNW 23:44:12 84° N 23:44:12 84° N
Sich 1 4.4 23:42:23 10° NNW 23:46:11 34° W 23:46:11 34° W
SL-24 R/B - RUBIN 2 4.4 23:40:13 10° NW 23:46:16 65° WSW 23:46:16 65° WSW
Cosmos 2228 Rocket 4.2 23:48:23 42° NNE 23:48:23 42° NNE 23:51:26 10° NNE
Cosmos 1140 Rocket 3.9 23:41:36 10° NNW 23:46:22 58° NNE 23:46:22 58° NNE
SL-19 R/B 4.4 23:42:33 10° NNE 23:48:48 89° ESE 23:49:23 76° SSW
Cosmos 1633 Rocket 4.4 23:47:12 10° NNW 23:50:53 35° W 23:50:53 35° W
Cosmos 676 Rocket 4.2 23:47:52 10° NNW 23:52:42 73° NNW 23:52:42 73° NNW
